Stations météo

Publicité
Winterbourne No 2, Grande-Bretagne (99062): Température de l'air & dewpoint: 03.08.2020 23:00:00 - 09.08.2020 23:00:00 (BST)Winterbourne No 2, Grande-Bretagne (99062): Température de l'air -20cm & Température de l'air -100cm: 03.08.2020 23:00:00 - 09.08.2020 23:00:00 (BST)Winterbourne No 2, Grande-Bretagne (99062): Quantités de précipitations: 03.08.2020 23:00:00 - 09.08.2020 23:00:00 (BST)
Date & Time tt [°C] td [°C] tt -20cm [°C] tt -100cm [°C] rr [mm]
09.08.2020 23:00:00 18,9 15,5 - - 0,0
09.08.2020 22:00:00 19,8 15,6 - - 0,0
09.08.2020 21:00:00 20,6 15,7 - - 0,0
09.08.2020 20:00:00 22,1 16,0 - - 0,0
09.08.2020 19:00:00 24,1 16,5 - - 0,0
09.08.2020 18:00:00 24,6 16,1 - - 0,0
09.08.2020 17:00:00 25,3 16,8 - - 0,0
09.08.2020 16:00:00 24,0 16,2 - - 0,0
09.08.2020 15:00:00 22,2 15,0 - - 0,0
09.08.2020 14:00:00 20,7 15,2 - - 0,0
09.08.2020 13:00:00 19,3 15,2 - - 0,0
09.08.2020 12:00:00 17,1 14,2 - - 0,0
09.08.2020 11:00:00 16,1 13,7 - - 0,0
09.08.2020 10:00:00 15,5 13,8 17,7 15,7 0,0
09.08.2020 09:00:00 14,9 13,5 - - 0,0
09.08.2020 08:00:00 14,9 13,5 - - 0,0
09.08.2020 07:00:00 14,8 13,3 - - 0,0
09.08.2020 06:00:00 14,7 13,5 - - 0,0
09.08.2020 05:00:00 14,7 13,4 - - 0,0
09.08.2020 04:00:00 14,9 13,2 - - 0,0
09.08.2020 03:00:00 15,3 13,2 - - 0,0
09.08.2020 02:00:00 15,6 13,3 - - 0,0
09.08.2020 01:00:00 16,1 13,6 - - 0,0
09.08.2020 00:00:00 16,7 13,7 - - 0,0
08.08.2020 23:00:00 17,9 13,2 - - 0,0
08.08.2020 22:00:00 19,6 12,6 - - 0,0
08.08.2020 21:00:00 21,1 12,6 - - 0,0
08.08.2020 20:00:00 23,2 14,2 - - 0,0
08.08.2020 19:00:00 25,1 15,0 - - 0,0
08.08.2020 18:00:00 26,4 15,8 - - 0,0
08.08.2020 17:00:00 27,2 16,4 - - 0,0
08.08.2020 16:00:00 26,9 16,6 - - 0,0
08.08.2020 15:00:00 26,8 16,6 - - 0,0
08.08.2020 14:00:00 26,7 17,3 - - 0,0
08.08.2020 13:00:00 26,1 16,9 - - 0,0
08.08.2020 12:00:00 24,8 16,5 - - 0,0
08.08.2020 11:00:00 23,7 16,4 - - 0,0
08.08.2020 10:00:00 22,1 16,1 17,2 15,7 0,0
08.08.2020 09:00:00 20,2 16,0 - - 0,0
08.08.2020 08:00:00 18,1 15,9 - - 0,0
08.08.2020 07:00:00 16,9 15,4 - - 0,0
08.08.2020 06:00:00 16,9 15,2 - - 0,0
08.08.2020 05:00:00 17,4 15,4 - - 0,0
08.08.2020 04:00:00 17,9 16,3 - - 0,0
08.08.2020 03:00:00 18,8 16,7 - - 0,0
08.08.2020 02:00:00 19,5 17,3 - - 0,0
08.08.2020 01:00:00 20,4 17,6 - - 0,0
08.08.2020 00:00:00 20,9 17,3 - - 0,0
07.08.2020 23:00:00 22,2 17,0 - - 0,0
07.08.2020 22:00:00 23,4 16,6 - - 0,0
07.08.2020 21:00:00 24,5 14,0 - - 0,0
07.08.2020 20:00:00 26,1 14,1 - - 0,0
07.08.2020 19:00:00 27,6 13,5 - - 0,0
07.08.2020 18:00:00 28,9 13,2 - - 0,0
07.08.2020 17:00:00 29,3 14,0 - - 0,0
07.08.2020 16:00:00 29,6 14,5 - - 0,0
07.08.2020 15:00:00 28,0 15,1 - - 0,0
07.08.2020 14:00:00 26,1 15,1 - - 0,0
07.08.2020 13:00:00 26,6 16,1 - - 0,0
07.08.2020 12:00:00 26,0 15,3 - - 0,0
07.08.2020 11:00:00 24,8 15,3 - - 0,0
07.08.2020 10:00:00 22,8 17,0 16,7 15,7 0,0
07.08.2020 09:00:00 21,1 18,2 - - 0,0
07.08.2020 08:00:00 17,3 17,2 - - 0,0
07.08.2020 07:00:00 16,2 16,1 - - 0,2
07.08.2020 06:00:00 14,6 14,2 - - 0,0
07.08.2020 05:00:00 14,9 14,4 - - 0,0
07.08.2020 04:00:00 15,7 15,2 - - 0,0
07.08.2020 03:00:00 16,1 15,4 - - 0,0
07.08.2020 02:00:00 16,9 16,3 - - 0,0
07.08.2020 01:00:00 16,8 15,6 - - 0,0
07.08.2020 00:00:00 17,9 16,2 - - 0,0
06.08.2020 23:00:00 19,9 17,1 - - 0,0
06.08.2020 22:00:00 20,8 17,5 - - 0,0
06.08.2020 21:00:00 21,4 17,6 - - 0,0
06.08.2020 20:00:00 22,2 17,8 - - 0,0
06.08.2020 19:00:00 22,8 18,3 - - 0,0
06.08.2020 18:00:00 22,7 18,8 - - 0,0
06.08.2020 17:00:00 21,9 19,3 - - 0,0
06.08.2020 16:00:00 21,8 19,6 - - 0,2
06.08.2020 15:00:00 21,2 17,9 - - 0,0
06.08.2020 14:00:00 21,7 17,2 - - 0,0
06.08.2020 13:00:00 22,6 17,4 - - 0,0
06.08.2020 12:00:00 20,5 15,8 - - 0,0
06.08.2020 11:00:00 19,0 15,1 - - 0,0
06.08.2020 10:00:00 18,1 15,2 16,7 15,7 0,0
06.08.2020 09:00:00 18,1 14,5 - - 0,0
06.08.2020 08:00:00 17,0 14,5 - - 0,0
06.08.2020 07:00:00 16,1 14,8 - - 0,0
06.08.2020 06:00:00 15,1 14,0 - - 0,0
06.08.2020 05:00:00 15,5 14,6 - - 0,0
06.08.2020 04:00:00 15,4 14,6 - - 0,0
06.08.2020 03:00:00 15,9 14,8 - - 0,0
06.08.2020 02:00:00 16,7 15,5 - - 0,0
06.08.2020 01:00:00 17,2 15,8 - - 0,0
06.08.2020 00:00:00 17,4 16,0 - - 0,0
05.08.2020 23:00:00 17,7 16,2 - - 0,0
05.08.2020 22:00:00 17,9 16,2 - - 0,0
05.08.2020 21:00:00 18,4 15,8 - - 0,0
05.08.2020 20:00:00 18,9 15,7 - - 0,0
05.08.2020 19:00:00 19,3 15,2 - - 0,0
05.08.2020 18:00:00 20,3 14,9 - - 0,0
05.08.2020 17:00:00 20,6 15,3 - - 0,0
05.08.2020 16:00:00 20,7 15,0 - - 0,0
05.08.2020 15:00:00 21,5 13,4 - - 0,0
05.08.2020 14:00:00 21,8 14,6 - - 0,0
05.08.2020 13:00:00 21,6 14,0 - - 0,0
05.08.2020 12:00:00 21,8 14,2 - - 0,0
05.08.2020 11:00:00 21,4 14,8 - - 0,0
05.08.2020 10:00:00 19,7 15,0 16,4 15,7 0,0
05.08.2020 09:00:00 18,6 15,2 - - 0,0
05.08.2020 08:00:00 17,1 14,5 - - 0,0
05.08.2020 07:00:00 16,8 14,0 - - 0,0
05.08.2020 06:00:00 16,3 14,2 - - 0,0
05.08.2020 05:00:00 15,8 14,3 - - 0,0
05.08.2020 04:00:00 15,9 14,1 - - 0,0
05.08.2020 03:00:00 16,2 14,1 - - 0,0
05.08.2020 02:00:00 15,9 13,7 - - 0,0
05.08.2020 01:00:00 16,6 13,5 - - 0,0
05.08.2020 00:00:00 16,8 13,5 - - 0,0
04.08.2020 23:00:00 17,0 13,5 - - 0,0
04.08.2020 22:00:00 17,1 13,5 - - 0,0
04.08.2020 21:00:00 17,9 12,8 - - 0,0
04.08.2020 20:00:00 18,1 12,4 - - 0,0
04.08.2020 19:00:00 18,7 11,8 - - 0,0
04.08.2020 18:00:00 19,3 11,4 - - 0,0
04.08.2020 17:00:00 20,1 10,8 - - 0,0
04.08.2020 16:00:00 20,0 10,3 - - 0,0
04.08.2020 15:00:00 17,7 10,0 - - 0,0
04.08.2020 14:00:00 18,9 10,2 - - 0,0
04.08.2020 13:00:00 16,0 9,3 - - 0,0
04.08.2020 12:00:00 15,6 9,2 - - 0,0
04.08.2020 11:00:00 13,6 8,1 - - 0,0
04.08.2020 10:00:00 13,4 8,2 16,0 15,7 0,0
04.08.2020 09:00:00 14,4 9,5 - - 0,0
04.08.2020 08:00:00 13,0 9,1 - - 0,0
04.08.2020 07:00:00 10,5 9,3 - - 0,0
04.08.2020 06:00:00 8,5 8,1 - - 0,0
04.08.2020 05:00:00 7,8 7,2 - - 0,0
04.08.2020 04:00:00 8,2 7,5 - - 0,0
04.08.2020 03:00:00 7,8 6,8 - - 0,0
04.08.2020 02:00:00 8,9 7,2 - - 0,0
04.08.2020 01:00:00 9,6 7,0 - - 0,0
04.08.2020 00:00:00 10,4 6,8 - - 0,0
03.08.2020 23:00:00 12,7 7,1 - - 0,0

tt = Température de l'air
td = dewpoint
tt -20cm = Température de l'air -20cm
tt -100cm = Température de l'air -100cm
rr = Quantités de précipitations

stations d'obs. à proximité